Wind_Speed
13 12 11 8 4 3 3 1 1 8 6 13 13 17 13 10 13 10 12 12 11 7 6 7 8 9 9 6 5 7 5 4 2 2 5 6 7 7 8 9 12 13 14 13
13 15 11 8 3 1 2 2 5 8 8 8 15 19 15 13 14 7 7 8 13 11 7 6 6 5 6 5 3 4 8 6 3 3 5 7 8 9 11 11 12 15 16 17
13 12 10 5 1 3 3 4 5 8 7 12 17 17 17 16 18 15 14 11 11 10 7 4 7 3 4 3 3 4 3 4 3 4 8 11 12 13 12 12 13 16 17 18
11 12 10 4 4 4 7 4 4 1 4 6 16 8 19 18 19 19 18 13 11 12 11 7 4 5 5 4 3 2 2 1 5 8 13 15 15 17 18 17 18 19 19 21
10 12 11 8 6 3 3 6 5 4 5 7 13 7 20 24 23 23 19 14 13 10 10 6 5 8 11 8 7 7 14 15 13 13 14 15 16 18 18 21 23 24 25 24
12 10 10 9 7 2 2 2 5 7 8 3 2 8 10 24 18 24 21 18 15 13 13 11 8 10 14 13 11 13 13 14 16 18 14 17 19 22 21 22 26 27 27 26
15 11 11 10 11 5 5 2 1 2 2 5 4 4 7 10 19 21 22 20 18 15 13 12 9 11 7 4 2 1 0 2 4 7 13 13 18 24 28 28 28 28 29 31
14 9 12 15 16 8 6 1 3 2 2 5 4 3 4 6 20 21 22 20 16 13 13 11 9 11 9 5 8 8 7 9 8 11 14 17 22 20 26 34 37 37 36 37
13 9 12 15 17 16 8 6 2 2 2 4 5 5 6 5 8 23 26 21 16 14 12 9 8 10 8 9 9 9 10 12 14 14 19 25 29 32 27 26 31 39 43 43
9 9 10 13 14 12 7 7 3 4 2 3 5 6 8 5 5 16 27 21 16 14 13 12 9 7 10 11 11 12 12 12 13 18 23 28 32 34 34 31 31 33 36 40
14 13 13 14 11 14 11 11 5 7 4 6 1 4 4 7 7 8 21 19 17 16 15 12 10 13 14 13 13 13 14 14 17 21 28 31 31 34 34 35 37 38 38 39
25 11 17 18 15 14 13 11 12 10 6 7 4 9 8 7 8 11 11 13 19 20 19 15 17 18 17 17 15 17 16 18 22 26 30 35 37 36 37 40 40 41 43 41
22 19 12 7 10 13 12 15 12 12 11 13 8 9 13 8 12 16 20 20 23 24 21 20 21 21 20 20 18 18 21 23 29 33 35 40 43 46 46 46 46 44 42 43
26 25 23 26 29 23 17 14 11 12 11 11 15 13 10 12 16 19 19 25 25 22 21 25 25 22 21 20 21 23 25 28 31 36 38 44 46 46 44 44 42 42 41 43
26 20 22 17 13 17 17 13 11 11 12 11 10 7 8 12 12 13 15 17 19 21 24 26 25 23 22 23 24 26 29 33 36 37 41 42 45 43 43 43 42 40 39 40
23 17 17 17 14 11 10 10 13 13 14 13 12 15 13 11 11 15 17 19 22 25 27 26 23 23 24 26 27 30 33 31 36 43 46 50 49 47 47 46 44 43 39 37
23 18 19 12 12 10 9 14 16 14 13 12 18 20 22 24 22 16 17 20 27 25 22 22 22 25 26 28 32 36 37 43 46 47 47 51 54 49 43 42 41 41 39 36
21 18 15 10 13 2 12 13 12 10 11 15 12 10 12 12 13 13 12 17 19 21 23 26 28 30 32 34 37 40 45 42 44 48 50 52 41 44 45 41 39 36 35 33
19 18 14 9 18 5 14 16 12 13 13 12 13 14 10 8 10 11 12 14 17 20 22 24 28 32 34 36 38 42 44 46 45 48 51 50 45 45 43 42 36 33 33 31
18 17 18 14 6 8 11 13 15 16 16 13 9 9 10 10 12 12 12 14 17 19 23 27 30 34 35 39 44 47 47 48 51 51 50 47 43 41 40 39 34 33 33 33
19 18 18 17 14 7 9 11 14 15 15 7 7 7 7 8 10 12 13 16 19 23 27 30 32 37 41 45 48 50 51 52 52 49 45 39 41 42 38 39 32 31 33 33
17 13 14 16 14 10 14 17 22 16 13 12 13 11 10 11 12 13 16 20 24 29 33 37 41 43 45 47 47 46 45 46 46 44 44 45 41 42 36 38 32 30 34 33
11 13 12 12 10 10 8 20 21 21 17 11 9 8 9 12 15 18 21 25 29 35 36 39 42 39 39 43 45 46 45 44 43 41 42 42 42 36 33 35 33 32 33 29
13 14 15 14 12 10 10 15 15 12 9 8 10 11 12 13 17 21 26 31 34 31 29 30 31 35 39 40 36 38 33 37 38 38 38 38 36 32 30 32 31 31 24 22
13 12 13 13 14 14 12 12 12 12 11 11 12 13 16 21 27 31 30 29 28 28 30 32 34 35 34 30 27 29 32 35 34 34 33 31 30 29 31 32 30 31 26 27
13 14 14 14 14 12 11 10 9 10 11 13 15 19 24 29 28 25 23 25 27 28 31 31 26 28 28 25 29 28 27 26 25 22 26 27 29 29 28 32 23 22 22 21
Wind_Direction
163 169 162 141 142 64 71 55 18 180 194 230 212 215 219 199 184 173 171 172 151 139 113 114 118 131 140 152 175 165 155 171 218 291 297 286 281 271 257 265 270 269 269 269
163 148 155 160 157 142 115 182 232 209 233 225 202 204 219 208 198 178 144 163 160 129 119 96 80 107 133 143 125 205 183 187 215 263 270 276 273 268 273 280 272 273 276 278
160 158 169 169 226 169 124 123 135 149 183 209 200 208 215 209 192 185 162 145 183 166 134 92 62 97 115 129 155 137 167 184 236 257 262 262 260 257 260 263 279 281 270 266
173 174 176 199 173 174 187 142 168 224 187 178 197 207 216 219 202 198 177 170 167 170 171 178 106 61 94 103 72 125 125 263 292 293 278 270 271 274 269 264 271 279 275 279
172 188 196 208 181 161 223 232 225 246 268 215 204 225 222 217 218 217 202 192 172 181 163 144 156 94 86 94 67 55 50 36 7 344 329 296 281 279 273 278 281 285 284 279
177 168 194 193 194 138 144 345 213 239 261 211 156 214 228 219 240 229 212 200 182 191 182 166 163 142 107 93 73 68 52 30 20 13 333 309 301 291 281 275 275 278 276 276
194 199 196 202 210 239 250 20 79 357 8 205 326 245 246 232 234 236 236 210 194 191 195 186 187 165 122 107 91 213 349 324 333 334 354 309 291 287 287 283 279 278 275 275
211 212 211 224 233 229 225 162 110 196 232 278 289 255 242 252 224 229 221 219 202 202 198 206 200 199 192 229 187 218 257 272 298 324 334 333 329 320 291 279 275 275 275 275
183 200 212 229 226 224 185 170 182 156 258 319 296 281 292 286 245 222 215 206 206 207 215 230 210 205 224 228 224 240 273 272 267 290 313 323 323 323 316 294 277 273 270 271
176 164 176 175 185 189 190 184 157 181 136 276 301 287 265 296 284 212 207 209 211 220 237 235 233 242 255 246 249 253 272 268 289 308 317 319 318 316 308 306 301 291 281 276
200 180 184 188 191 209 197 193 185 176 176 166 247 274 317 304 272 238 209 215 226 241 244 250 255 258 263 270 277 287 283 285 297 307 314 311 315 317 304 301 299 293 287 284
213 220 195 200 205 212 212 216 227 217 211 206 231 271 278 290 224 204 219 240 233 232 240 250 253 259 265 272 288 290 287 293 296 305 307 318 312 310 306 302 302 292 288 288
223 218 189 177 197 214 212 225 228 224 233 221 200 251 276 256 216 227 239 243 233 233 243 247 255 259 268 278 283 285 286 291 299 304 307 316 317 312 305 300 295 293 286 285
232 227 218 203 215 207 199 204 209 228 223 236 235 248 241 243 246 252 240 235 236 240 249 251 254 258 259 269 278 279 286 290 293 298 308 312 310 306 303 302 294 289 285 286
216 209 215 217 197 193 199 206 216 226 243 246 255 249 222 231 240 230 224 228 245 253 251 249 249 252 261 269 273 280 281 281 296 306 308 310 314 304 304 308 304 293 290 289
200 185 187 169 177 198 234 251 268 266 260 248 258 264 265 251 248 256 258 253 251 247 241 242 251 263 269 271 272 274 283 296 299 306 311 309 308 305 298 300 302 298 293 288
200 196 185 180 199 212 235 251 261 259 263 277 280 280 269 263 266 266 244 246 235 236 241 253 261 267 271 275 283 291 291 296 304 306 309 308 309 302 302 303 298 296 293 287
214 208 206 182 192 197 243 232 225 237 270 302 290 290 279 262 252 246 221 227 233 244 254 263 270 273 279 285 291 292 300 301 303 306 306 309 309 309 307 300 298 294 291 285
219 220 196 181 193 216 191 211 232 271 272 270 275 285 283 252 242 234 237 248 255 260 265 274 283 288 291 295 302 300 297 297 298 304 303 305 304 303 303 302 297 292 288 285
199 197 205 189 181 201 247 237 245 273 263 270 279 272 264 263 254 269 263 263 270 280 289 293 297 300 302 303 299 298 296 296 298 301 300 299 302 303 303 296 293 288 284 283
189 199 209 216 219 224 234 223 224 233 282 285 272 281 272 263 260 264 274 285 291 295 300 302 297 295 295 294 292 293 296 296 298 298 299 300 302 304 302 295 290 287 283 285
193 197 207 221 225 236 227 218 218 247 263 281 280 269 261 270 276 280 284 287 294 298 297 293 290 291 292 293 294 296 299 298 293 295 298 298 300 301 299 294 296 287 288 286
208 217 213 217 224 233 219 223 229 237 253 246 246 250 253 260 268 277 289 297 298 293 292 292 294 297 308 299 295 300 304 298 295 295 297 300 302 298 296 294 294 291 288 287
236 240 234 231 217 223 212 216 227 227 232 234 237 247 258 275 290 297 297 300 294 294 302 305 303 302 307 313 308 301 306 305 297 296 298 302 299 296 296 294 293 292 294 282
226 218 213 207 199 195 194 203 219 227 233 244 256 273 290 297 299 302 304 303 304 304 305 307 309 310 309 311 320 312 304 298 297 299 304 302 301 305 308 301 292 283 282 279
221 221 216 220 216 215 222 233 250 260 273 280 288 299 310 316 303 297 299 304 305 306 310 310 311 316 317 313 328 330 325 321 314 309 311 303 305 303 311 317 302 292 273 252
Height
3177 3180 3180 3182 3182 3183 3183 3183 3184 3186 3188 3189 3191 3194 3194 3197 3198 3199 3201 3202 3204 3204 3206 3206 3206 3207 3208 3210 3212 3211 3215 3216 3217 3218 3219 3220 3220 3220 3221 3221 3221 3221 3222 3222
3178 3179 3180 3181 3182 3183 3183 3184 3184 3185 3186 3188 3190 3193 3194 3195 3198 3200 3201 3201 3203 3203 3206 3207 3207 3208 3208 3210 3211 3210 3212 3214 3215 3216 3217 3218 3218 3218 3218 3219 3221 3221 3220 3219
3176 3179 3179 3180 3181 3182 3183 3183 3183 3184 3185 3187 3189 3192 3192 3194 3196 3198 3200 3202 3203 3205 3206 3209 3209 3209 3209 3209 3210 3210 3211 3211 3214 3214 3215 3215 3216 3216 3216 3217 3217 3218 3217 3216
3175 3177 3178 3179 3180 3181 3182 3182 3183 3184 3185 3186 3188 3190 3190 3190 3193 3195 3197 3198 3202 3204 3206 3207 3209 3209 3209 3209 3210 3211 3211 3213 3214 3213 3213 3213 3214 3214 3214 3214 3214 3214 3212 3212
3175 3175 3177 3178 3180 3181 3181 3181 3182 3183 3183 3185 3186 3188 3186 3187 3188 3190 3193 3196 3199 3203 3206 3207 3208 3209 3208 3209 3210 3211 3211 3213 3213 3213 3212 3212 3212 3211 3208 3209 3208 3208 3207 3206
3172 3173 3175 3177 3179 3179 3180 3180 3180 3181 3180 3183 3183 3184 3181 3181 3181 3185 3190 3194 3197 3201 3204 3206 3207 3208 3208 3210 3210 3210 3210 3211 3211 3211 3211 3210 3209 3208 3207 3205 3204 3203 3201 3202
3170 3172 3173 3175 3177 3178 3179 3179 3179 3181 3182 3181 3180 3180 3179 3178 3180 3183 3187 3192 3195 3198 3201 3203 3205 3206 3207 3208 3208 3208 3208 3208 3209 3208 3208 3206 3205 3204 3202 3201 3199 3197 3195 3195
3168 3170 3171 3172 3174 3176 3177 3178 3179 3184 3185 3180 3179 3177 3176 3176 3177 3179 3185 3190 3193 3196 3198 3200 3202 3204 3205 3205 3205 3205 3205 3204 3204 3203 3203 3203 3202 3200 3197 3195 3192 3190 3189 3188
3164 3167 3167 3168 3170 3174 3175 3177 3178 3179 3180 3180 3177 3176 3175 3174 3174 3177 3182 3187 3190 3192 3195 3197 3199 3201 3202 3202 3202 3202 3201 3200 3199 3198 3196 3195 3193 3191 3189 3186 3183 3182 3181 3179
3162 3164 3165 3166 3169 3171 3173 3175 3176 3177 3181 3182 3176 3174 3173 3174 3175 3176 3179 3183 3187 3189 3191 3192 3194 3196 3197 3197 3196 3196 3195 3194 3193 3192 3190 3188 3186 3183 3180 3179 3176 3173 3171 3168
3160 3162 3165 3166 3167 3168 3171 3171 3173 3175 3176 3177 3180 3174 3173 3173 3174 3175 3178 3182 3184 3186 3187 3189 3190 3191 3191 3190 3190 3189 3189 3189 3188 3187 3185 3184 3181 3178 3174 3170 3167 3164 3161 3158
3157 3160 3161 3164 3164 3165 3167 3168 3169 3171 3175 3174 3174 3173 3172 3172 3173 3175 3178 3180 3182 3183 3184 3186 3187 3186 3185 3185 3186 3186 3185 3184 3183 3182 3181 3178 3174 3169 3165 3160 3156 3152 3148 3147
3153 3156 3159 3161 3164 3163 3164 3165 3166 3167 3169 3169 3171 3171 3170 3170 3171 3174 3176 3177 3179 3180 3181 3181 3181 3181 3181 3182 3183 3181 3180 3179 3178 3176 3173 3169 3164 3160 3155 3150 3145 3140 3136 3133
3148 3150 3151 3152 3154 3158 3160 3161 3162 3164 3165 3165 3165 3166 3167 3168 3169 3170 3172 3173 3175 3177 3177 3177 3177 3178 3178 3178 3177 3176 3175 3174 3172 3169 3164 3159 3155 3148 3143 3138 3132 3128 3124 3121
3143 3144 3148 3150 3152 3154 3157 3158 3160 3161 3162 3163 3163 3164 3164 3164 3166 3166 3167 3169 3171 3172 3172 3173 3174 3175 3175 3174 3173 3172 3170 3168 3164 3159 3155 3149 3144 3138 3132 3127 3122 3117 3113 3109
3138 3141 3144 3148 3150 3152 3154 3155 3156 3158 3159 3160 3160 3161 3162 3162 3163 3163 3163 3164 3165 3167 3168 3170 3171 3171 3170 3169 3168 3166 3163 3159 3153 3148 3143 3137 3132 3127 3121 3115 3110 3106 3102 3098
3136 3138 3142 3145 3148 3149 3152 3152 3153 3155 3155 3157 3157 3157 3158 3158 3158 3158 3158 3159 3161 3164 3165 3166 3165 3165 3164 3163 3160 3158 3153 3149 3144 3137 3132 3126 3120 3114 3110 3104 3099 3095 3091 3087
3132 3136 3139 3142 3145 3148 3147 3149 3150 3152 3152 3152 3152 3152 3152 3153 3153 3153 3154 3156 3159 3161 3161 3161 3161 3160 3159 3156 3153 3148 3142 3137 3131 3125 3120 3115 3109 3103 3098 3093 3088 3084 3080 3078
3130 3133 3136 3139 3142 3145 3143 3145 3146 3147 3147 3147 3147 3149 3149 3150 3151 3152 3154 3156 3157 3158 3158 3158 3155 3153 3150 3147 3142 3135 3130 3125 3119 3115 3109 3105 3099 3092 3088 3083 3078 3075 3071 3069
3126 3130 3134 3137 3139 3141 3141 3142 3143 3142 3141 3143 3143 3144 3146 3148 3148 3150 3151 3153 3153 3153 3152 3150 3146 3142 3138 3135 3129 3123 3118 3114 3110 3103 3099 3094 3087 3082 3077 3072 3068 3065 3062 3060
3123 3126 3129 3132 3134 3135 3137 3138 3138 3140 3141 3138 3139 3141 3143 3145 3147 3147 3148 3148 3147 3145 3142 3139 3136 3132 3128 3122 3116 3111 3107 3102 3096 3091 3088 3084 3079 3073 3066 3062 3058 3055 3053 3050
3119 3123 3126 3128 3129 3130 3131 3132 3134 3135 3134 3135 3136 3137 3139 3141 3142 3142 3141 3140 3138 3137 3134 3130 3125 3121 3117 3111 3104 3099 3095 3090 3084 3081 3078 3074 3068 3063 3057 3053 3049 3046 3044 3041
3117 3119 3121 3125 3123 3123 3125 3127 3129 3130 3131 3131 3133 3135 3135 3136 3136 3135 3135 3134 3132 3128 3124 3120 3115 3110 3106 3099 3093 3086 3083 3076 3073 3072 3068 3064 3058 3053 3048 3044 3041 3038 3036 3033
3111 3113 3115 3118 3119 3120 3122 3124 3125 3127 3128 3129 3129 3130 3131 3131 3131 3130 3128 3126 3122 3119 3115 3110 3106 3101 3096 3091 3085 3078 3073 3069 3065 3062 3059 3054 3048 3045 3041 3036 3032 3029 3028 3026
3108 3111 3113 3114 3115 3118 3120 3121 3122 3123 3124 3125 3126 3127 3127 3126 3124 3122 3119 3115 3111 3108 3105 3101 3096 3092 3088 3082 3078 3072 3066 3061 3057 3054 3049 3044 3040 3037 3033 3028 3023 3021 3021 3019
3105 3108 3110 3111 3113 3115 3117 3118 3119 3120 3121 3121 3122 3121 3119 3117 3115 3112 3109 3106 3103 3100 3096 3093 3089 3084 3080 3075 3071 3065 3059 3054 3050 3046 3042 3038 3034 3030 3026 3020 3017 3014 3012 3011